STARLINK-36086 (66980 NORAD) Tracking and Keplerian Element Data

This shows tracking and keplerian element data for the satellite.

Feedback or suggestion? Click here.




ElementValue
Catalog66980
NameSTARLINK-36086
Epoch Orbit303
Epoch Day354.25003472
Epoch Year2025
RAAN121.064
Inclination43.002
Eccentricity0.000173
Argument of Perigee269.8188
Mean Anonmoly135.2214
Mean Motion15.80940405
Decay Rate-0.01551607
L11 66980U 25288X 25354.25003472 -.01551607 00000+0 -88242-2 0 9998
L22 66980 43.0020 121.0640 0001730 269.8188 135.2214 15.80940405 3037



Live tracking and technical data element details for STARLINK-36086 (NORAD 66980). STARLINK-36086 can be tracked NOW for your location showing map with azimuth and elevation plus other details from your city location.







IsCatalogInMostPopularTable: catalog: 66980, numindb: 12
Update: records affected: 1



GetName: 66980 STARLINK-36086

Hit Count: updated at: Fri, 16 Jan 2026 10:14:02 GMT